Total_Precipitation_Accumulation
0.61 0.78 0.90 0.91 0.95 1.00 1.04 0.99 0.98 0.94 0.93 0.90 0.90 0.98 1.01 0.94 0.88 0.95 0.97 0.93 0.92 0.86 0.83 0.84 0.81 0.77 0.85 0.88 0.92 0.92 0.87 0.90 0.93 0.55 0.44 0.48 0.63 0.74 0.81 0.76 0.74 0.73 0.72
0.55 0.66 0.78 0.89 0.94 1.00 0.99 1.01 1.06 1.04 0.97 0.89 0.86 0.93 1.00 0.99 0.91 0.90 0.93 0.93 0.95 0.92 0.88 0.89 0.88 0.85 0.88 0.91 0.98 0.98 0.90 0.84 0.91 0.76 0.58 0.63 0.72 0.81 0.85 0.82 0.81 0.79 0.70
0.55 0.64 0.74 0.86 0.89 0.93 0.90 0.93 1.08 1.19 1.14 1.00 0.91 0.94 1.02 1.07 1.01 0.92 0.93 0.93 0.90 0.86 0.85 0.90 0.93 0.94 0.89 0.88 0.98 1.03 0.97 0.91 0.93 0.93 0.74 0.68 0.77 0.89 1.00 0.99 0.94 0.92 0.81
0.52 0.62 0.71 0.80 0.82 0.82 0.82 0.83 0.95 1.12 1.21 1.13 1.00 0.95 1.02 1.14 1.17 1.14 1.13 1.05 0.95 0.85 0.77 0.79 0.88 1.01 1.02 1.03 1.07 1.06 1.08 1.12 1.11 1.09 0.94 0.83 0.88 0.97 1.11 1.17 1.13 1.07 1.00
0.52 0.60 0.63 0.69 0.78 0.78 0.76 0.80 0.89 1.02 1.09 1.11 1.08 1.02 1.03 1.23 1.47 1.63 1.51 1.22 1.02 0.90 0.75 0.71 0.80 1.05 1.23 1.39 1.45 1.34 1.35 1.47 1.45 1.39 1.27 1.12 1.02 1.08 1.18 1.17 1.23 1.16 1.15
0.52 0.57 0.59 0.66 0.77 0.81 0.75 0.78 0.89 1.00 1.04 1.05 1.04 1.03 1.02 1.20 1.57 1.79 1.47 1.13 0.98 0.92 0.84 0.74 0.79 1.03 1.17 1.30 1.43 1.41 1.46 1.65 1.76 1.70 1.54 1.33 1.04 0.94 1.02 1.21 1.41 1.55 1.49
0.51 0.53 0.59 0.68 0.72 0.79 0.79 0.81 0.91 1.01 1.03 1.02 0.99 0.97 0.94 1.01 1.36 1.59 1.37 1.06 0.94 0.90 0.86 0.80 0.82 0.92 1.05 1.07 1.17 1.20 1.22 1.40 1.65 1.75 1.70 1.33 1.11 1.01 1.20 1.43 1.50 1.60 1.49
0.52 0.49 0.56 0.64 0.67 0.77 0.82 0.84 0.94 1.03 1.00 1.00 0.99 0.95 0.91 0.95 1.23 1.49 1.32 1.05 0.97 0.91 0.90 0.84 0.78 0.81 0.93 1.09 1.17 1.12 1.04 1.12 1.36 1.56 1.74 1.54 1.33 1.35 1.61 1.86 1.97 1.99 1.76
0.55 0.49 0.51 0.60 0.65 0.74 0.80 0.87 0.94 1.02 0.99 0.96 0.94 0.96 0.91 0.89 1.14 1.50 1.40 1.09 1.01 0.94 0.94 0.88 0.78 0.74 0.92 1.08 1.06 1.04 0.96 1.01 1.14 1.34 1.48 1.55 1.57 1.72 2.01 2.39 2.55 2.53 2.28
0.53 0.45 0.48 0.55 0.58 0.66 0.74 0.84 0.92 0.92 0.91 0.93 0.89 0.89 0.87 0.83 0.99 1.40 1.52 1.14 1.04 0.96 0.95 0.91 0.97 0.95 1.03 1.05 0.97 1.02 1.11 1.00 0.96 1.01 1.06 1.11 1.17 1.31 1.71 2.14 2.46 2.56 2.34
0.50 0.46 0.48 0.52 0.56 0.63 0.72 0.76 0.83 0.87 0.86 0.91 0.90 0.87 0.86 0.84 0.89 1.16 1.50 1.25 1.07 0.97 0.98 0.97 0.92 1.06 1.08 1.04 1.02 1.00 1.16 1.10 1.00 1.08 1.06 0.99 0.99 1.09 1.25 1.58 2.08 2.45 2.45
0.46 0.48 0.53 0.57 0.59 0.63 0.69 0.68 0.71 0.81 0.85 0.88 0.92 0.95 0.92 0.87 0.90 1.11 1.32 1.28 1.17 0.98 0.95 0.88 0.87 1.03 1.08 1.10 1.07 1.10 1.16 1.15 1.08 1.09 1.02 0.95 0.95 1.03 1.17 1.36 1.64 1.96 2.11
0.45 0.48 0.54 0.61 0.64 0.66 0.65 0.65 0.69 0.76 0.83 0.87 0.90 0.91 0.93 0.90 0.94 1.13 1.14 1.17 1.17 1.06 1.05 1.08 1.04 1.13 1.16 1.08 1.04 1.08 1.05 1.00 1.07 1.10 0.98 0.85 0.83 0.93 1.03 1.13 1.25 1.48 1.69
0.45 0.47 0.52 0.57 0.64 0.67 0.63 0.61 0.63 0.71 0.82 0.83 0.85 0.83 0.83 0.86 1.00 1.12 1.04 1.03 1.11 1.17 1.19 1.18 1.19 1.21 1.17 1.10 1.04 0.94 0.86 0.88 0.97 1.00 0.93 0.83 0.75 0.80 0.92 1.03 1.14 1.25 1.52
0.43 0.43 0.47 0.49 0.60 0.70 0.69 0.64 0.63 0.64 0.78 0.87 0.82 0.80 0.85 0.96 1.10 1.19 1.10 1.08 1.13 1.20 1.28 1.33 1.27 1.23 1.21 1.10 0.95 0.84 0.80 0.85 0.90 0.86 0.86 0.86 0.83 0.81 0.84 0.91 1.09 1.21 1.39
0.42 0.41 0.44 0.47 0.55 0.65 0.68 0.70 0.76 0.74 0.77 0.77 0.76 0.80 0.80 0.95 1.06 1.06 1.08 1.10 1.19 1.26 1.31 1.31 1.15 1.00 0.96 0.91 0.85 0.79 0.76 0.75 0.74 0.77 0.83 0.84 0.83 0.84 0.85 0.87 1.01 1.17 1.30
0.42 0.43 0.45 0.48 0.53 0.60 0.62 0.62 0.73 0.83 0.86 0.80 0.74 0.76 0.83 0.91 0.94 0.97 1.01 1.07 1.13 1.14 1.11 0.99 0.89 0.83 0.80 0.76 0.73 0.71 0.71 0.66 0.66 0.72 0.77 0.79 0.78 0.82 0.86 0.88 0.95 1.08 1.20
0.43 0.48 0.51 0.50 0.54 0.60 0.60 0.57 0.60 0.68 0.75 0.79 0.80 0.78 0.82 0.87 0.91 0.93 0.97 1.10 1.14 0.98 0.84 0.82 0.81 0.79 0.81 0.82 0.79 0.75 0.71 0.70 0.71 0.69 0.69 0.72 0.75 0.82 0.85 0.85 0.89 1.02 1.11
0.47 0.50 0.53 0.53 0.56 0.60 0.60 0.59 0.59 0.61 0.63 0.68 0.75 0.83 0.89 0.90 0.92 0.95 0.95 0.95 0.93 0.86 0.77 0.76 0.76 0.79 0.83 0.85 0.79 0.75 0.74 0.70 0.66 0.65 0.64 0.63 0.67 0.75 0.78 0.76 0.83 0.94 1.02
0.52 0.60 0.62 0.57 0.58 0.63 0.65 0.66 0.65 0.64 0.66 0.67 0.69 0.76 0.91 0.98 0.95 0.96 0.91 0.85 0.83 0.78 0.76 0.77 0.76 0.78 0.83 0.85 0.82 0.77 0.76 0.72 0.66 0.64 0.61 0.60 0.61 0.68 0.72 0.74 0.80 0.87 0.90
0.58 0.61 0.68 0.62 0.60 0.66 0.72 0.72 0.70 0.71 0.72 0.69 0.66 0.72 0.95 1.01 0.90 0.80 0.80 0.79 0.78 0.78 0.80 0.82 0.81 0.80 0.80 0.81 0.81 0.77 0.74 0.71 0.67 0.64 0.61 0.60 0.62 0.65 0.66 0.72 0.78 0.80 0.84
0.63 0.65 0.67 0.65 0.64 0.70 0.76 0.76 0.75 0.76 0.76 0.73 0.70 0.73 0.84 0.80 0.77 0.76 0.75 0.75 0.75 0.76 0.79 0.84 0.83 0.80 0.80 0.81 0.82 0.79 0.72 0.67 0.65 0.65 0.64 0.62 0.61 0.61 0.61 0.66 0.71 0.75 0.79
0.68 0.71 0.74 0.73 0.69 0.76 0.80 0.79 0.78 0.78 0.77 0.73 0.73 0.73 0.75 0.74 0.75 0.79 0.81 0.79 0.80 0.81 0.79 0.77 0.78 0.76 0.75 0.77 0.77 0.80 0.75 0.65 0.61 0.64 0.68 0.64 0.59 0.57 0.57 0.59 0.61 0.66 0.72
0.75 0.77 0.79 0.80 0.76 0.76 0.80 0.84 0.83 0.81 0.79 0.78 0.77 0.76 0.74 0.75 0.75 0.76 0.80 0.83 0.85 0.83 0.78 0.75 0.73 0.72 0.71 0.73 0.72 0.72 0.70 0.68 0.72 0.74 0.69 0.68 0.62 0.56 0.56 0.57 0.56 0.60 0.68
0.82 0.82 0.83 0.87 0.86 0.84 0.84 0.86 0.85 0.84 0.83 0.80 0.79 0.79 0.76 0.74 0.74 0.74 0.76 0.79 0.82 0.81 0.74 0.72 0.75 0.76 0.73 0.70 0.68 0.67 0.73 0.80 0.85 0.90 0.89 0.82 0.69 0.59 0.57 0.57 0.56 0.58 0.63
0.82 0.83 0.85 0.88 0.90 0.87 0.88 0.90 0.88 0.87 0.88 0.83 0.78 0.78 0.78 0.76 0.74 0.73 0.73 0.76 0.81 0.79 0.73 0.71 0.73 0.75 0.73 0.72 0.71 0.75 0.80 0.81 0.84 0.86 0.90 0.90 0.76 0.62 0.59 0.61 0.57 0.57 0.61